Miscellaneous Local Product
Issued by NWS Hastings, NE

Home | Current Version | Previous Version | Graphics & Text | Print | Product List | Glossary On
Versions: 1 2 3 4 5 6 7 8 9 10 11 12 13 14 15 16 17 18 19 20 21 22 23 24 25 26 27 28 29 30 31 32 33 34 35 36 37 38 39 40 41 42 43 44 45 46 47 48 49 50
139
AXUS43 KGID 201502
MISGRI

GID CWA HOURLY WEATHER ROUNDUP
NATIONAL WEATHER SERVICE HASTINGS NE
1000 AM CDT SUN AUG 20 2017

NOTE: "FAIR" INDICATES FEW OR NO CLOUDS BELOW 12,000 FEET WITH NO
SIGNIFICANT WEATHER AND/OR OBSTRUCTIONS TO VISIBILITY.

...SOUTH CENTRAL NEBRASKA...

CITY           SKY/WX    TMP DP  RH WIND       PRES   REMARKS
GRAND ISLAND   CLOUDY    74  67  78 E5        29.94R
HASTINGS       SUNNY     74  65  73 S8        29.94R
KEARNEY        SUNNY     72  66  81 SE10      29.94R
ORD            SUNNY     71  61  70 SE8       29.94R
YORK           PTSUNNY   73  64  73 S8        29.93R
AURORA         MOSUNNY   76  66  71 S10G16    29.95R
LEXINGTON      MOSUNNY   72  66  83 E5        29.94S
HOLDREGE       SUNNY     74  67  78 SE7       29.93R
HEBRON         SUNNY     79  67  66 S15G25    29.92S

...NEBRASKA PANHANDLE...

CITY           SKY/WX    TMP DP  RH WIND       PRES   REMARKS
CHADRON        SUNNY     68  50  52 N8        30.09R
ALLIANCE       SUNNY     71  56  58 E15       30.06R
SCOTTSBLUFF    CLOUDY    68  56  65 E8        30.09R
SIDNEY         MOSUNNY   66  51  58 N9        30.08R

...WESTERN AND NORTH CENTRAL NEBRASKA...

CITY           SKY/WX    TMP DP  RH WIND       PRES   REMARKS
VALENTINE      SUNNY     76  57  51 NE18      30.01S
AINSWORTH      SUNNY     73  65  78 E6        30.01R
ONEILL         SUNNY     75  59  58 CALM      29.99R
BROKEN BOW     SUNNY     71  63  75 SE6       29.94F
IMPERIAL       MOSUNNY   74  62  66 N15       29.96S
NORTH PLATTE   SUNNY     75  65  70 E9        29.94S
MCCOOK         SUNNY     74  59  59 NE3       29.94R

...EASTERN NEBRASKA...

CITY           SKY/WX    TMP DP  RH WIND       PRES   REMARKS
NORFOLK        SUNNY     74  60  61 N5        29.96R
SO SIOUX CITY  SUNNY     75  66  73 E3        29.96R
TEKAMAH        PTSUNNY   74  66  76 E5        29.97R
COLUMBUS       SUNNY     73  65  75 N9        29.97R
ALBION         SUNNY     76  65  69 NE3       29.97R
OMAHA EPPLEY   CLOUDY    71  64  78 E9        29.94R THUNDER
OFFUTT AFB     LGT RAIN  69  63  83 SE3       29.93S
MILLARD        CLOUDY    71  65  83 SE6       29.94R
LINCOLN        PTSUNNY   74  66  76 SE12      29.95R
NEBRASKA CITY  CLOUDY    70  70 100 CALM      29.96R
BEATRICE       SUNNY     78  64  61 S15       29.92S
FALLS CITY     SUNNY     77  66  68 S15       29.94R

...NORTHERN KANSAS...

CITY           SKY/WX    TMP DP  RH WIND       PRES   REMARKS
GOODLAND       SUNNY     78  59  51 CALM      29.98R
HILL CITY      SUNNY     82  66  58 SW9       29.91S
NORTON         SUNNY     79  55  44 S9        29.91S
PHILLIPSBURG   SUNNY     81  66  61 E7        29.91S
SMITH CENTER   PTSUNNY   81  68  65 SE9       29.92S
HAYS           SUNNY     83  67  58 S12       29.93S
RUSSELL        SUNNY     82  67  60 S12       29.92S
CONCORDIA      SUNNY     78  71  79 SE13      29.93S
SALINA         SUNNY     86  69  56 S10       29.94F HX  90
TOPEKA         SUNNY     78  71  79 E12       29.99F



USA.gov is the U.S. government's official web portal to all federal, state and local government web resources and services.